Probability
0 0 0 0 0 0 0 0 0 0 0 0 0 0 0 0 0 0 0 0 0 0 0 0 1 0 0 0 0 0 0 0 0 1 2 3 3 3 3 3 2 1 1
0 0 0 0 0 0 0 0 0 0 0 0 0 0 0 0 1 1 0 0 0 0 0 0 1 1 1 1 1 0 0 0 0 0 1 2 3 3 3 3 2 1 1
0 0 0 0 0 0 0 0 0 0 0 0 0 0 0 0 1 1 0 0 0 0 0 0 0 1 2 3 2 1 0 0 0 0 1 2 3 3 3 3 1 1 1
0 0 0 0 0 0 0 0 0 0 0 0 0 0 0 0 1 1 0 0 0 0 0 0 0 1 2 3 2 1 0 0 0 0 1 2 3 3 3 2 1 0 1
0 0 0 0 0 0 0 0 0 0 0 0 0 0 0 0 0 0 0 0 0 0 0 0 0 0 1 1 1 0 0 0 0 0 1 2 2 2 2 2 1 0 0
0 0 0 0 0 0 0 0 0 0 0 0 0 0 0 0 0 0 0 0 0 0 0 0 0 0 0 0 0 0 0 0 0 0 0 1 1 1 1 1 0 0 0
0 0 0 0 0 0 0 0 0 0 0 0 0 0 0 0 0 0 0 0 0 0 0 0 0 0 0 0 0 0 0 0 0 0 0 1 0 0 0 0 0 0 0
0 0 0 0 0 0 0 0 0 0 0 0 0 0 0 0 0 0 0 0 0 0 0 0 0 0 0 0 0 0 0 0 0 0 0 0 0 0 0 0 0 0 0
0 0 0 0 0 0 0 0 0 0 0 0 0 0 0 0 0 0 0 0 0 0 0 0 0 1 1 1 0 0 0 0 0 0 0 0 0 0 0 0 0 0 0
0 0 0 0 0 0 0 0 0 0 0 0 0 0 0 0 0 0 0 0 0 0 0 0 0 1 2 1 0 0 0 0 0 0 0 0 0 0 0 0 0 0 0
0 0 0 0 0 0 0 0 0 0 0 0 0 0 0 0 0 0 0 0 0 0 0 0 0 1 1 1 0 0 0 0 0 0 0 0 0 1 1 0 0 0 0
0 0 0 0 0 0 0 0 0 0 0 0 0 0 0 0 0 0 0 0 0 0 0 0 0 0 0 0 0 0 0 0 0 0 0 0 0 1 1 1 1 1 1
0 0 0 0 0 0 0 0 0 0 0 0 0 0 0 0 0 0 0 0 0 0 0 0 0 0 0 0 0 0 0 0 0 0 0 0 0 0 1 1 2 2 2
0 0 0 0 0 0 0 0 0 0 0 0 0 0 0 0 0 0 0 0 0 0 0 0 0 0 0 0 0 0 0 0 0 0 0 0 0 0 0 1 1 1 1
0 0 0 0 0 0 0 0 0 0 0 0 0 0 0 0 0 0 0 0 0 0 0 0 0 0 0 0 0 0 0 0 0 0 0 0 0 0 0 0 0 0 0
0 0 0 0 0 0 0 0 0 0 0 0 0 0 0 0 0 0 0 0 0 0 0 0 0 0 0 0 0 0 0 0 0 0 0 0 0 0 0 0 0 0 0
0 0 0 0 0 0 0 0 0 0 0 0 0 0 0 0 0 1 1 0 0 0 0 0 0 0 0 0 0 0 0 0 0 0 0 0 0 0 0 0 0 0 0
0 0 0 0 0 0 0 0 0 0 0 0 0 0 0 0 1 2 1 0 0 0 0 0 0 0 0 0 0 0 0 0 0 0 0 0 0 0 0 0 0 0 0
0 0 0 0 0 0 0 0 0 0 0 0 0 0 0 0 1 1 1 0 0 0 0 0 0 0 0 0 0 0 0 0 0 0 0 0 0 0 0 0 0 0 0
0 0 0 0 0 0 0 0 0 0 0 0 0 0 0 0 0 0 0 0 0 0 0 0 0 0 0 0 0 0 0 0 0 0 0 0 0 0 0 0 0 0 0
0 0 0 0 0 0 0 0 0 0 0 0 0 0 0 0 0 0 0 0 0 0 0 0 0 0 0 0 0 0 0 0 0 0 0 0 0 0 0 0 0 0 0
0 0 0 0 0 0 0 0 0 0 0 0 0 0 0 0 0 0 0 0 0 0 0 0 0 0 0 0 0 0 0 0 0 0 0 0 0 0 0 0 0 0 0
0 1 1 0 0 0 0 0 0 0 0 0 0 0 0 0 0 0 0 0 0 0 0 0 0 0 0 0 0 0 0 0 0 0 0 0 0 0 0 0 0 0 0
1 2 2 1 0 0 0 0 0 0 0 0 0 0 0 0 0 0 0 0 0 0 0 0 0 0 0 0 0 0 0 0 0 0 0 0 0 0 0 0 0 0 0
1 2 2 2 1 0 0 0 0 0 0 0 0 0 0 0 0 0 0 0 0 0 0 0 0 0 0 0 0 0 0 0 0 0 0 0 0 0 0 0 0 0 0
0 1 2 2 1 0 0 0 0 0 0 0 0 0 0 0 0 0 0 0 0 0 0 0 0 0 0 0 0 0 0 0 0 0 0 0 0 0 0 0 0 0 0
Wind_Speed
3 4 3 3 4 4 4 4 5 6 6 6 6 6 6 6 6 5 5 10 9 9 8 8 8 8 8 7 7 8 8 8 7 7 6 7 7 7 8 8 8 7 7
3 3 4 4 4 3 3 4 5 5 5 5 6 6 6 6 5 5 5 6 10 9 9 9 9 9 9 9 9 9 9 9 9 9 8 7 8 8 8 8 8 7 7
3 3 3 3 3 3 4 4 5 4 4 5 5 6 5 6 6 6 5 4 5 9 11 10 10 10 10 10 10 10 10 10 10 11 10 10 10 9 9 9 9 9 9
3 2 2 3 3 3 3 3 3 4 4 4 4 4 5 5 6 6 5 5 5 5 8 11 11 10 10 10 10 10 11 11 11 11 12 12 11 10 10 10 10 10 10
2 3 2 2 3 3 3 3 3 3 4 4 4 4 4 5 5 5 6 7 6 5 5 8 9 10 10 10 10 10 11 11 11 11 12 11 11 10 10 10 10 10 10
2 2 2 2 3 2 3 3 4 3 3 3 4 4 4 4 4 5 5 5 5 6 6 6 5 7 10 10 9 10 10 10 11 11 11 11 11 10 10 10 10 10 10
1 1 1 2 2 2 3 3 3 4 3 2 2 3 4 4 4 4 4 4 5 5 5 5 4 4 4 9 10 9 10 10 10 11 11 11 11 10 10 9 9 10 10
1 1 1 2 2 2 3 3 3 1 2 1 0 1 2 3 3 3 3 3 4 4 5 5 5 5 4 3 8 10 9 10 10 10 10 10 10 9 8 8 8 9 9
0 1 1 1 2 2 3 3 3 2 1 1 1 2 1 1 2 2 3 3 3 3 4 4 5 5 5 4 4 8 9 9 9 9 9 9 9 9 8 7 7 8 9
1 1 1 1 2 2 3 3 3 2 2 1 1 1 2 1 1 1 2 2 3 3 4 3 4 4 5 4 6 9 9 9 9 9 9 9 9 9 10 9 9 9 9
1 1 1 1 2 2 2 2 2 2 2 2 1 0 0 1 2 1 1 1 2 2 3 3 3 3 4 4 4 7 8 8 8 8 8 8 9 9 10 10 9 8 8
1 1 0 1 1 1 2 2 2 3 2 2 2 1 1 1 1 1 1 1 1 2 2 2 2 2 2 3 5 8 7 7 7 8 8 8 8 9 9 9 8 8 7
1 1 1 1 1 1 1 2 2 2 3 3 2 1 1 1 1 1 1 1 1 1 2 1 2 2 2 2 4 6 6 6 6 6 7 7 7 8 8 8 8 8 8
1 1 1 0 0 0 1 1 2 2 2 2 2 2 1 1 1 2 1 1 2 1 2 2 2 1 1 2 3 2 5 5 5 5 5 6 6 7 7 7 7 7 7
1 1 1 1 1 1 1 1 1 2 2 2 2 2 2 2 2 2 2 2 2 2 1 2 1 1 1 2 2 2 3 6 4 4 5 5 5 6 6 6 7 7 7
1 2 2 1 1 1 1 1 1 1 2 1 1 2 2 1 1 2 2 3 3 3 1 1 1 1 1 1 2 1 3 6 4 4 4 4 4 5 5 5 6 6 6
2 2 2 2 1 2 2 2 1 2 2 2 2 2 2 1 2 2 2 2 2 2 2 1 1 2 2 1 2 1 1 2 3 4 3 3 3 3 3 4 4 4 4
3 3 2 2 1 1 2 2 2 2 2 1 1 1 1 1 2 2 1 2 2 2 2 2 2 2 2 2 2 2 1 1 1 4 3 2 2 1 2 2 2 2 3
4 3 3 2 2 2 2 2 2 2 2 2 1 1 1 2 2 2 2 2 2 2 2 3 2 2 2 2 2 2 2 2 1 3 3 3 2 1 1 1 1 1 1
4 4 3 3 3 2 2 2 2 2 2 2 2 1 1 2 2 2 2 2 2 2 3 3 3 3 3 3 3 3 2 2 2 2 2 2 3 4 3 3 2 2 1
4 4 4 3 3 3 2 2 2 2 2 2 2 1 0 1 3 2 1 2 3 3 3 3 3 3 3 3 4 3 2 2 2 2 2 2 3 3 4 5 5 4 3
4 4 4 4 4 3 1 1 3 3 3 3 2 2 2 2 1 1 1 1 2 4 4 4 4 4 4 4 3 3 3 3 3 2 3 2 2 3 2 2 2 4 4
4 4 5 4 4 3 4 3 4 4 4 3 3 2 1 1 1 2 3 3 2 3 4 5 4 4 4 4 4 5 4 4 3 1 2 3 2 3 3 1 3 4 4
3 4 4 4 3 3 4 4 4 5 4 3 3 3 3 2 2 2 2 2 2 2 3 4 4 4 3 3 4 5 4 4 3 2 3 4 3 3 3 2 4 4 4
4 4 4 4 4 4 5 5 4 4 4 4 3 3 3 3 2 3 3 3 3 2 1 1 2 2 2 2 3 3 4 4 4 3 3 4 3 3 3 3 4 6 5
4 3 4 4 5 4 4 5 6 4 4 3 3 3 2 2 2 4 4 4 4 3 2 3 3 4 4 4 5 6 4 4 4 3 3 3 3 3 3 3 3 3 4
Wind_Direction
72 78 83 80 75 76 80 76 72 72 66 57 55 55 57 53 48 52 59 56 46 44 51 57 58 58 60 60 58 56 52 50 49 49 57 62 63 63 61 62 64 65 66
79 79 83 82 75 72 73 79 82 77 69 64 58 52 49 51 48 47 50 66 60 48 50 56 58 62 63 63 64 61 56 52 49 47 60 74 71 68 68 68 67 65 68
84 86 83 89 88 91 92 85 85 77 78 78 72 62 55 46 46 47 46 46 66 66 58 55 57 62 64 66 66 64 60 55 52 54 65 73 70 70 71 71 70 67 68
77 86 90 91 98 98 97 92 85 82 77 71 67 63 62 57 50 48 51 57 55 60 68 59 56 60 64 65 66 65 64 61 58 59 63 67 67 66 69 69 69 67 66
80 90 91 97 104 110 107 98 88 80 83 79 76 67 60 58 53 51 55 53 58 59 66 74 66 59 61 62 65 65 64 63 60 59 60 62 62 62 64 66 66 64 64
92 105 131 127 123 125 114 110 108 97 87 89 83 75 68 68 61 51 49 52 53 57 59 62 72 71 61 58 60 64 63 63 61 60 59 58 59 60 60 63 66 66 65
110 114 142 137 149 138 131 136 127 123 115 109 114 104 97 77 65 60 49 52 59 58 63 63 59 63 76 66 53 58 60 62 63 62 59 57 56 54 55 58 63 65 64
90 130 158 154 157 149 155 150 154 141 126 180 281 182 146 126 88 66 64 50 53 65 58 58 63 63 57 70 66 54 52 57 61 62 60 58 54 51 53 57 62 64 64
100 196 154 157 167 178 168 175 181 184 177 184 305 314 309 67 96 98 63 63 56 55 60 57 59 59 61 60 72 68 52 52 60 63 60 56 51 48 52 63 75 73 69
127 162 166 179 184 182 183 194 192 199 213 207 182 301 338 26 270 132 120 76 58 54 53 56 55 59 63 69 69 63 59 53 55 58 58 56 53 54 60 70 81 79 72
103 134 166 182 193 195 201 207 209 216 215 237 231 172 122 216 258 243 133 127 101 72 59 54 56 56 60 63 65 70 66 58 53 52 52 53 54 57 61 68 76 75 70
130 114 167 197 199 200 204 214 214 211 229 231 237 231 228 246 247 228 198 180 127 91 82 67 59 60 65 73 68 72 70 64 57 52 48 48 51 55 60 64 71 68 64
150 137 187 227 203 197 202 215 216 212 211 218 224 239 259 277 283 276 230 193 163 149 128 110 84 84 84 87 89 90 81 70 63 55 49 46 48 49 52 56 61 60 58
168 153 194 236 186 195 193 199 223 207 210 208 212 215 219 240 255 256 257 228 211 181 166 130 105 90 98 102 88 123 97 85 72 64 57 54 53 52 52 53 53 54 55
178 181 185 191 173 186 196 197 227 210 212 217 211 210 214 204 229 242 246 251 259 242 190 133 136 103 120 97 118 140 108 93 84 75 69 65 62 60 59 58 56 54 54
191 203 211 188 173 179 187 201 227 245 218 195 212 221 218 212 206 225 234 239 258 267 223 130 144 141 133 136 126 128 99 107 91 84 77 72 69 69 68 66 63 59 57
207 214 218 222 197 195 194 190 216 210 213 200 195 202 214 219 211 212 217 223 233 240 206 172 160 161 174 180 148 161 142 145 113 105 97 88 81 74 72 72 69 64 60
217 224 215 221 219 227 229 208 206 215 221 222 220 217 203 188 213 213 206 214 212 228 211 188 179 181 190 193 185 190 186 169 139 116 124 119 107 92 82 80 77 70 67
215 215 216 218 218 223 227 229 217 211 214 218 226 237 229 216 214 194 205 208 204 201 203 203 189 181 203 200 197 203 205 207 205 147 159 172 177 187 174 168 137 99 86
221 219 219 220 221 231 233 228 221 214 213 212 213 227 249 254 254 230 218 211 202 195 192 198 195 192 197 203 212 211 210 201 219 203 191 192 185 199 208 217 215 203 193
226 221 218 222 222 233 239 238 226 220 220 218 211 216 252 2 359 320 279 228 206 206 203 203 201 202 203 204 214 217 222 228 225 226 230 219 209 217 204 209 217 219 219
224 220 222 222 220 223 170 238 255 230 228 224 219 214 179 173 135 167 302 296 262 231 219 213 216 217 222 219 217 222 222 237 235 210 246 240 227 240 234 226 173 193 214
214 217 223 224 224 198 169 195 237 248 239 234 228 222 216 188 192 198 176 187 214 254 260 249 234 236 235 223 217 223 228 239 250 218 252 250 231 243 238 187 159 201 220
212 218 223 224 224 195 175 193 219 235 236 231 231 227 220 212 208 235 215 218 226 216 232 241 246 253 256 248 230 236 240 239 244 222 241 258 250 253 247 213 171 203 223
222 220 220 220 216 200 179 190 216 227 230 225 225 230 235 228 176 217 224 226 229 222 194 244 301 312 337 302 257 230 220 223 233 216 211 246 253 262 254 232 189 192 209
221 221 219 226 223 216 178 189 219 225 228 224 217 215 220 242 193 214 227 227 231 235 226 198 207 216 225 217 221 225 224 231 242 234 206 231 240 245 254 229 220 206 210